Wind_Speed
5 6 2 4 6 5 3 4 7 6 7 3 8 7 12 26 22 13 16 21 23 24 23 26 24 22 25 30 34 31 33 35 30 26 26 26 27 27 24 21 19 18 19 19
6 3 8 4 4 5 5 5 7 6 4 2 9 14 13 10 5 5 14 20 23 25 24 28 29 26 27 22 28 31 29 34 33 29 26 24 26 24 24 19 17 15 18 20
4 5 3 4 3 4 4 4 4 6 4 5 5 7 1 3 3 12 16 18 21 24 28 33 32 30 30 19 19 26 21 25 34 30 27 25 20 22 21 11 6 10 15 20
4 3 2 3 5 3 4 4 5 7 4 6 3 7 4 1 5 5 15 18 22 28 32 36 42 37 31 23 14 13 19 22 28 32 32 23 19 14 14 9 7 10 17 16
8 2 5 3 3 2 6 4 6 8 4 2 2 1 6 3 3 5 9 15 18 24 29 35 39 42 40 31 18 7 11 15 15 20 28 21 12 12 13 6 6 13 15 15
6 5 2 3 1 2 4 4 2 4 3 1 3 3 4 3 4 4 6 12 17 22 27 30 32 38 41 41 28 17 8 9 14 18 18 18 13 13 13 7 8 15 16 17
6 4 2 2 3 4 8 7 5 6 4 4 2 4 8 7 4 5 7 13 18 20 22 25 32 35 36 39 36 25 14 6 4 8 10 15 15 16 12 12 11 15 15 18
2 7 1 1 4 4 0 5 4 5 3 10 10 7 5 3 5 7 9 12 16 26 23 20 17 30 35 33 32 30 21 17 9 3 8 12 14 16 14 15 14 17 18 20
3 5 4 4 2 5 3 3 4 3 1 3 4 6 7 0 2 2 8 11 17 29 24 19 18 8 33 35 27 23 22 17 13 9 6 5 1 3 7 13 16 19 20 22
4 7 5 3 2 2 3 6 0 2 4 5 5 5 5 4 5 6 7 17 26 32 29 18 14 16 22 34 25 14 17 16 14 9 6 4 3 5 9 12 16 20 23 24
2 4 5 2 5 8 3 1 3 2 4 5 3 6 6 6 8 7 10 23 24 25 25 15 11 15 11 28 23 10 12 15 14 12 9 6 6 8 10 12 18 24 25 24
2 2 5 11 10 5 4 6 7 4 6 5 3 12 5 7 2 5 10 15 20 19 16 14 17 17 10 16 18 12 8 10 10 9 8 7 8 10 12 14 17 21 24 24
1 2 6 9 6 3 2 3 4 0 1 8 6 11 1 3 7 19 12 13 16 18 20 19 13 13 5 5 9 10 7 8 9 11 12 11 12 12 15 17 18 20 20 18
6 4 7 6 11 5 11 16 9 6 6 16 17 25 15 14 8 15 12 14 13 16 25 26 26 22 17 13 11 16 15 13 12 12 13 14 16 14 15 15 16 16 14 13
3 4 5 7 14 17 18 19 17 14 19 11 25 17 16 15 15 16 11 11 21 24 29 28 27 28 27 24 19 19 16 13 16 17 19 19 20 22 12 14 13 11 11 11
4 4 3 6 8 5 8 16 13 14 17 17 20 21 13 19 7 7 9 19 24 27 28 28 24 26 23 19 16 14 13 10 14 18 21 22 20 18 14 11 8 10 10 9
2 1 2 5 5 13 9 5 3 4 4 5 6 7 11 9 5 8 20 26 26 30 29 22 26 27 20 18 17 15 11 10 10 13 19 22 17 14 12 7 8 6 8 8
4 2 1 4 9 2 6 3 1 3 6 3 11 11 9 7 13 22 29 32 27 30 31 33 34 32 34 34 31 25 18 11 11 15 19 18 12 10 9 7 6 4 6 6
7 2 3 3 5 10 9 2 3 3 13 5 4 10 20 21 19 23 26 19 31 35 34 29 33 32 33 30 27 26 25 19 15 18 17 18 8 10 7 6 7 8 10 19
3 1 3 2 3 4 3 0 17 3 5 1 17 19 22 16 12 15 29 36 36 33 32 33 30 27 25 25 23 22 24 21 20 17 15 11 9 10 6 11 13 14 20 25
4 3 3 3 5 7 2 10 9 3 5 18 24 23 14 13 22 39 41 37 35 34 32 32 28 28 25 23 21 21 18 16 13 13 9 10 8 8 10 13 14 23 28 28
2 1 3 3 4 7 1 16 2 8 26 24 18 26 32 32 35 37 37 38 36 36 35 32 31 29 27 22 18 18 14 9 6 9 7 8 6 9 13 16 27 29 27 26
3 5 2 5 5 12 30 27 30 28 22 22 31 32 32 33 32 39 39 36 34 34 35 27 36 26 21 18 16 14 11 10 5 7 8 9 10 15 20 28 32 29 28 30
4 4 4 3 7 14 21 29 26 24 34 37 35 34 30 33 39 36 37 33 38 31 38 31 26 22 19 15 14 10 12 16 8 9 14 16 18 25 32 31 26 26 29 28
8 2 5 8 17 20 21 23 31 36 38 35 31 32 36 34 33 38 35 38 34 39 29 24 23 20 16 13 14 14 17 18 16 18 19 22 27 34 33 30 28 26 26 24
7 6 3 6 16 18 26 33 38 36 32 30 35 33 31 33 34 36 31 37 33 27 22 23 20 13 16 17 21 21 22 23 24 24 26 29 31 32 32 34 32 27 28 24
Wind_Direction
28 61 149 226 191 202 216 227 252 257 266 220 256 261 270 281 302 331 353 338 332 333 332 337 335 327 298 269 264 262 256 249 240 237 236 234 242 248 251 259 275 275 285 292
21 155 214 210 207 217 218 250 266 282 257 206 280 286 243 272 289 26 354 351 351 349 354 347 338 335 330 291 281 254 252 244 238 241 236 239 243 245 253 248 259 272 285 285
157 239 182 184 288 296 264 232 269 252 301 252 296 288 202 301 17 2 11 10 15 12 10 13 4 351 336 318 292 245 243 241 243 240 238 238 242 241 249 243 289 295 287 283
226 261 231 262 260 168 299 191 253 274 329 285 71 289 294 287 307 2 2 13 20 24 25 22 22 14 355 354 327 256 242 251 243 238 237 232 247 266 250 255 287 325 310 288
250 278 279 267 229 146 228 288 246 264 246 22 270 1 268 218 301 322 333 355 6 14 20 22 22 23 21 13 6 311 263 260 249 230 244 244 248 248 241 246 315 320 310 306
247 275 217 216 129 109 303 336 344 50 101 36 229 96 274 259 219 295 300 343 2 4 4 10 16 21 24 20 30 22 25 282 245 226 209 226 243 244 246 237 273 303 314 313
336 290 287 111 30 6 33 40 332 344 1 238 239 317 241 263 211 222 266 312 336 340 346 352 7 10 10 14 20 38 50 88 142 179 201 227 233 245 270 251 262 292 301 307
88 327 230 152 149 235 151 142 146 294 268 283 282 244 253 236 183 245 287 301 347 351 339 336 347 355 356 357 1 14 37 61 72 150 218 239 253 264 265 254 267 284 292 297
300 259 275 242 206 145 191 188 190 219 258 5 241 289 317 68 287 283 280 322 333 341 332 319 322 323 349 352 345 351 12 35 56 73 91 86 76 270 268 270 273 279 283 290
287 299 256 293 75 266 188 163 6 19 291 267 284 258 242 282 242 263 312 325 329 330 332 306 313 313 342 339 336 337 342 0 24 41 56 65 37 337 316 304 292 286 285 287
245 169 283 6 209 226 281 243 69 142 166 214 290 262 208 223 245 282 299 327 333 332 339 305 352 352 292 316 329 335 349 336 340 0 358 333 308 300 295 286 290 293 286 290
315 187 267 257 265 264 173 218 167 158 245 236 202 267 231 259 327 328 316 344 356 354 5 354 300 326 324 338 320 320 347 353 360 359 351 319 299 305 309 298 298 294 287 292
307 295 316 320 355 4 107 190 203 95 85 214 248 266 258 287 297 307 314 320 331 353 1 4 5 4 349 347 312 302 342 11 9 356 352 331 305 293 302 309 303 297 301 303
270 203 189 218 269 223 283 275 247 195 252 267 258 279 286 293 280 292 301 310 325 343 337 339 341 340 321 317 312 314 319 336 347 349 349 348 323 299 301 309 311 312 303 303
97 244 213 241 267 279 273 276 270 246 249 249 273 275 276 295 293 294 295 313 324 328 329 334 335 333 323 307 294 296 304 315 322 328 333 331 322 316 313 317 317 313 304 298
13 275 323 277 264 296 288 280 272 253 261 258 263 273 276 277 302 304 311 326 318 315 323 323 322 323 315 314 309 299 295 312 323 322 324 324 318 312 310 321 321 321 300 283
241 188 322 267 348 317 295 267 271 269 281 304 287 310 326 300 307 307 318 317 307 315 315 312 316 317 295 299 306 313 319 331 327 323 316 313 315 307 304 301 323 303 269 243
161 174 276 287 328 329 239 340 112 318 284 353 289 290 300 313 310 304 302 305 304 307 303 301 300 298 293 292 287 285 288 294 316 323 316 314 306 294 292 291 299 246 208 190
178 142 294 255 277 274 289 103 348 326 299 320 358 340 319 304 303 296 302 307 309 302 298 291 297 293 292 292 288 283 272 273 284 299 319 317 273 262 276 241 206 184 180 155
151 289 141 352 254 270 262 278 323 298 274 255 341 318 300 296 301 302 313 308 306 305 301 301 299 295 289 283 284 280 273 255 269 295 316 310 258 233 231 194 176 164 146 131
306 322 190 255 263 282 182 337 336 47 268 306 313 306 303 304 289 298 306 303 302 302 302 304 299 296 293 287 278 274 275 257 270 284 294 273 238 216 207 178 162 146 135 124
237 256 250 254 262 278 328 348 58 279 303 305 307 308 299 296 297 302 301 299 302 304 305 302 295 292 288 281 268 264 257 239 251 266 236 234 204 190 169 159 142 137 130 121
284 190 238 214 236 274 301 299 305 309 295 308 309 306 303 298 300 301 300 302 302 303 301 289 294 285 272 266 259 248 226 201 201 210 211 195 171 153 149 146 138 132 120 113
262 234 244 298 260 259 289 304 312 299 313 308 304 304 305 299 303 300 303 302 305 301 296 299 288 274 263 241 234 217 202 207 204 194 189 164 158 145 143 141 129 124 119 115
259 249 227 254 279 290 289 304 305 303 309 309 304 302 297 304 302 305 302 307 302 306 306 295 278 261 241 205 190 176 180 189 186 189 167 155 149 145 140 134 129 118 114 116
192 217 204 268 295 291 294 306 310 310 308 305 304 304 307 306 303 305 305 305 314 320 309 290 264 222 179 169 159 163 173 176 175 167 158 154 146 141 139 129 122 112 114 119
Height
1517 1526 1532 1524 1525 1525 1527 1529 1530 1521 1512 1512 1511 1511 1505 1492 1491 1490 1488 1485 1482 1478 1473 1469 1463 1457 1453 1450 1451 1452 1454 1457 1460 1463 1463 1466 1468 1469 1471 1472 1472 1473 1473 1473
1525 1527 1519 1518 1519 1522 1525 1525 1526 1516 1510 1510 1507 1501 1496 1490 1491 1491 1489 1485 1482 1476 1471 1465 1459 1453 1448 1442 1441 1442 1444 1449 1453 1457 1458 1459 1461 1464 1466 1468 1470 1470 1468 1468
1526 1518 1514 1516 1517 1518 1519 1520 1521 1520 1511 1508 1505 1499 1492 1488 1489 1490 1488 1486 1483 1478 1472 1465 1458 1451 1444 1436 1433 1433 1437 1442 1447 1450 1453 1456 1459 1460 1463 1464 1464 1464 1463 1462
1520 1512 1512 1515 1517 1516 1521 1514 1515 1515 1518 1521 1505 1512 1501 1491 1490 1489 1487 1484 1482 1477 1471 1465 1457 1449 1442 1434 1430 1429 1432 1437 1441 1444 1448 1452 1454 1457 1460 1460 1460 1460 1459 1458
1519 1512 1514 1514 1512 1511 1517 1511 1511 1509 1516 1517 1513 1523 1505 1494 1491 1490 1487 1484 1480 1477 1472 1466 1460 1454 1447 1437 1427 1426 1429 1432 1435 1441 1447 1451 1452 1454 1456 1457 1457 1457 1455 1452
1513 1509 1510 1509 1508 1509 1510 1512 1513 1521 1524 1530 1513 1516 1511 1498 1490 1489 1485 1483 1479 1475 1471 1467 1463 1456 1448 1445 1434 1429 1429 1430 1431 1437 1443 1449 1450 1451 1452 1453 1453 1452 1451 1448
1518 1512 1508 1507 1511 1511 1514 1524 1543 1534 1532 1531 1511 1517 1502 1487 1486 1485 1484 1481 1477 1474 1472 1468 1462 1457 1454 1450 1447 1440 1436 1431 1434 1435 1441 1446 1447 1447 1449 1450 1449 1448 1447 1444
1534 1529 1509 1508 1510 1515 1516 1522 1545 1537 1536 1516 1510 1516 1496 1483 1481 1482 1481 1479 1477 1473 1470 1467 1465 1462 1458 1455 1452 1448 1441 1436 1434 1435 1440 1442 1443 1444 1444 1445 1445 1443 1442 1440
1528 1526 1508 1506 1506 1510 1517 1523 1520 1528 1530 1540 1516 1498 1487 1481 1481 1481 1479 1477 1475 1472 1469 1465 1464 1461 1461 1457 1455 1452 1448 1444 1440 1439 1440 1441 1442 1443 1443 1443 1441 1440 1438 1436
1522 1529 1510 1506 1506 1507 1508 1512 1529 1544 1542 1528 1513 1503 1498 1486 1482 1478 1478 1476 1473 1469 1466 1464 1462 1460 1460 1460 1457 1454 1451 1449 1445 1444 1442 1442 1442 1442 1442 1441 1439 1437 1434 1432
1517 1528 1519 1510 1511 1511 1512 1516 1520 1522 1531 1530 1519 1498 1482 1480 1477 1479 1477 1475 1471 1468 1465 1462 1461 1460 1457 1460 1458 1456 1451 1450 1448 1445 1444 1443 1442 1442 1441 1438 1436 1433 1430 1427
1518 1524 1526 1511 1502 1501 1504 1509 1514 1530 1528 1523 1522 1488 1471 1473 1475 1475 1475 1473 1469 1467 1465 1462 1462 1461 1460 1457 1460 1457 1453 1450 1447 1445 1444 1443 1442 1440 1438 1435 1432 1428 1426 1423
1519 1531 1531 1514 1514 1503 1503 1506 1509 1515 1516 1511 1504 1479 1470 1472 1473 1472 1469 1469 1469 1467 1466 1465 1464 1461 1458 1456 1458 1459 1455 1451 1448 1446 1443 1442 1439 1436 1434 1431 1427 1424 1422 1419
1516 1525 1524 1535 1513 1514 1509 1502 1502 1508 1505 1490 1487 1476 1473 1472 1472 1468 1466 1466 1466 1465 1464 1463 1460 1458 1457 1457 1453 1455 1453 1449 1446 1444 1441 1439 1436 1432 1430 1427 1424 1421 1421 1419
1518 1524 1521 1518 1509 1505 1502 1497 1493 1496 1488 1495 1471 1476 1473 1474 1469 1466 1465 1464 1463 1462 1460 1458 1456 1453 1451 1450 1449 1448 1447 1447 1443 1441 1438 1436 1434 1430 1427 1424 1422 1420 1420 1419
1519 1528 1518 1512 1502 1503 1498 1487 1484 1483 1480 1479 1475 1469 1471 1469 1468 1465 1464 1464 1461 1459 1458 1454 1453 1452 1449 1446 1444 1443 1444 1441 1438 1437 1434 1432 1430 1428 1425 1423 1422 1420 1420 1420
1526 1529 1517 1511 1505 1501 1501 1485 1480 1478 1477 1476 1474 1473 1471 1467 1466 1465 1463 1461 1458 1454 1452 1451 1448 1445 1443 1443 1441 1439 1438 1435 1435 1433 1431 1429 1427 1426 1424 1423 1422 1421 1421 1420
1523 1523 1520 1511 1508 1530 1486 1479 1477 1479 1474 1475 1472 1471 1469 1468 1465 1462 1460 1455 1451 1449 1445 1442 1441 1439 1437 1435 1434 1433 1432 1431 1431 1428 1427 1427 1425 1425 1423 1424 1422 1422 1423 1423
1514 1517 1522 1520 1510 1495 1480 1477 1480 1479 1472 1471 1471 1471 1469 1464 1459 1453 1454 1450 1447 1442 1438 1436 1434 1433 1429 1427 1427 1426 1426 1428 1428 1428 1428 1426 1425 1424 1424 1424 1424 1424 1425 1426
1514 1517 1527 1532 1519 1503 1479 1478 1474 1472 1474 1469 1468 1466 1463 1458 1452 1443 1445 1442 1437 1434 1431 1426 1424 1422 1422 1422 1421 1421 1421 1424 1426 1427 1426 1426 1424 1425 1425 1426 1426 1427 1430 1431
1517 1517 1524 1520 1507 1492 1477 1476 1472 1482 1478 1467 1464 1462 1457 1454 1452 1438 1437 1432 1429 1425 1422 1419 1416 1414 1413 1414 1414 1415 1418 1420 1422 1425 1425 1424 1424 1426 1427 1428 1430 1433 1434 1438
1518 1519 1524 1509 1505 1501 1477 1474 1482 1474 1466 1462 1459 1456 1451 1445 1438 1434 1428 1423 1419 1416 1412 1410 1406 1405 1405 1406 1408 1411 1415 1419 1422 1423 1423 1424 1426 1428 1430 1432 1435 1438 1441 1445
1518 1511 1510 1508 1497 1477 1476 1475 1472 1468 1463 1458 1455 1449 1444 1437 1431 1425 1418 1413 1410 1408 1403 1400 1398 1396 1397 1399 1403 1407 1413 1417 1419 1421 1424 1426 1429 1431 1435 1437 1439 1444 1448 1452
1504 1501 1502 1498 1479 1475 1473 1471 1469 1464 1459 1453 1448 1442 1437 1430 1423 1416 1411 1405 1402 1397 1394 1390 1388 1388 1391 1395 1399 1405 1410 1415 1419 1423 1425 1428 1431 1434 1440 1444 1447 1450 1454 1458
1501 1498 1492 1486 1477 1473 1469 1468 1462 1456 1452 1445 1441 1436 1428 1422 1415 1410 1402 1398 1392 1386 1381 1379 1378 1381 1386 1392 1397 1403 1408 1414 1419 1423 1426 1430 1434 1438 1444 1448 1453 1458 1464 1468
1491 1490 1489 1478 1473 1470 1462 1459 1455 1449 1444 1439 1432 1425 1422 1417 1409 1403 1396 1390 1383 1376 1371 1367 1367 1375 1383 1390 1397 1402 1408 1412 1417 1423 1429 1432 1438 1444 1449 1454 1459 1469 1475 1477